Home   Weather   Ensenada   Past weeks
Flag for Mexico

Past Weather in Ensenada, Baja California, Mexico — Yesterday and Last 2 Weeks

Now
70 °F

Partly sunny.


Feels Like: 70 °F
Forecast: 72 / 56 °F
Wind: No wind

Location: Tijuana International Airport

Current Time: Jan 20, 2019 at 1:20:23 pm

Latest Report: Jan 20, 2019 at 11:47 am


Visibility: 10 mi

Pressure: 30.10 "Hg

Humidity: 35%

Dew Point: 41 °F

Location of EnsenadaLocation

Past Weather in Ensenada — Graph

°F

Ensenada Temperature Yesterday

Maximum temperature yesterday: 75 °F (at 1:42 pm)
Minimum temperature yesterday: 50 °F (at 1:42 am)
Average temperature yesterday: 61 °F

High & Low Weather Summary for the Past Weeks

 TemperatureHumidityPressure
High75 °F (Jan 19, 1:42 pm)100% (Jan 5, 7:44 pm)30.43 "Hg (Jan 5, 7:44 pm)
Low45 °F (Jan 7, 3:40 am)33% (Jan 8, 10:48 am)29.57 "Hg (Jan 14, 12:42 am)
Average56 °F79%30.14 "Hg
* Reported Jan 5 11:46 am — Jan 20 11:47 am, Ensenada. Weather by CustomWeather, © 2019

Note: Actual official high and low records may vary slightly from our data, if they occured in-between our weather recording intervals... More about our weather records

Advertising

Ensenada Weather History for the Previous 24 Hours

Scroll right to see more
 ConditionsComfort  
Time TempWeatherWind HumidityBarometerVisibility
11:47 am
Sun, Jan 20
70 °FPartly sunny.No wind35%30.10 "Hg10 mi
10:44 am66 °FOvercast.No wind46%30.12 "Hg10 mi
9:47 am64 °FOvercast.No wind46%30.11 "Hg10 mi
8:44 am61 °FPartly sunny.6 mph55%30.12 "Hg10 mi
7:45 am57 °FPartly sunny.6 mph59%30.13 "Hg10 mi
6:47 am55 °FPassing clouds.3 mph59%30.11 "Hg10 mi
5:43 am57 °FClear.7 mph55%30.09 "Hg8 mi
4:40 am57 °FClear.No wind55%30.09 "Hg8 mi
3:47 am61 °FClear.No wind45%30.10 "Hg8 mi
2:40 am59 °FClear.No wind51%30.11 "Hg8 mi
1:41 am63 °FClear.7 mph42%30.11 "Hg8 mi
12:42 am57 °FClear.No wind63%30.15 "Hg8 mi
11:40 pm
Sat, Jan 19
55 °FClear.No wind77%30.16 "Hg8 mi
10:40 pm57 °FClear.No wind63%30.16 "Hg8 mi
9:45 pm61 °FClear.No wind52%30.17 "Hg8 mi
8:42 pm57 °FClear.No wind77%30.16 "Hg8 mi
7:43 pm61 °FClear.No wind68%30.16 "Hg8 mi
6:44 pm63 °FClear.No wind68%30.17 "Hg10 mi
5:44 pm64 °FClear.No wind64%30.15 "Hg10 mi
4:43 pm68 °FSunny.5 mph53%30.14 "Hg10 mi
2:40 pm75 °FSunny.7 mph39%30.16 "Hg10 mi
1:42 pm75 °FSunny.5 mph36%30.17 "Hg10 mi
Weather by CustomWeather, © 2019

See weather overview

LIVE TOTAL LUNAR ECLIPSE – Watch the eclipse as it happens